Date,TemperatureHighF,TemperatureAvgF,TemperatureLowF,DewpointHighF,DewpointAvgF,DewpointLowF,HumidityHigh,HumidityAvg,HumidityLow,PressureMaxIn,PressureMinIn,WindSpeedMaxMPH,WindSpeedAvgMPH,GustSpeedMaxMPH,PrecipitationSumIn
2013-8-1,85.5,75.9,70.5,75.9,72.6,70.0,98,90,64,31.32,29.58,8,1,8,0.00
2013-8-2,88.7,77.6,68.4,75.2,71.3,68.1,99,83,56,29.74,29.62,8,1,8,0.00
2013-8-3,90.0,80.3,73.8,77.3,73.3,69.2,99,81,52,29.73,29.64,7,2,7,0.00
2013-8-4,86.5,77.7,69.8,72.4,68.8,64.0,97,77,48,29.73,29.62,12,2,12,0.00
2013-8-5,85.1,75.8,68.4,71.1,67.6,64.0,96,77,52,29.78,29.69,8,2,8,0.00
2013-8-6,75.2,71.0,68.0,71.1,68.2,63.6,99,91,74,29.78,29.68,9,2,9,0.31
2013-8-7,84.2,76.0,70.0,73.9,70.7,66.5,98,85,57,29.80,29.72,9,2,9,0.00
2013-8-8,85.8,76.9,71.8,77.1,73.5,69.9,98,90,69,29.79,29.71,7,1,7,0.13
2013-8-9,88.5,79.8,73.4,77.1,74.6,71.5,99,85,66,29.81,29.72,11,3,11,0.14
2013-8-10,91.0,79.8,73.4,78.1,74.3,70.3,99,85,57,29.82,29.74,11,2,11,0.01
2013-8-11,91.8,80.6,71.1,75.9,73.2,70.5,99,80,54,29.83,29.74,7,2,7,0.00
2013-8-12,92.1,81.2,72.1,77.2,73.2,70.2,98,79,52,29.77,29.66,7,1,7,0.00
2013-8-13,90.3,79.7,72.1,77.4,73.3,69.9,99,82,57,29.68,29.50,10,3,10,0.26
2013-8-14,77.5,72.9,65.3,73.5,66.2,60.3,99,81,58,29.78,29.56,12,2,12,0.01
2013-8-15,76.6,67.9,61.2,63.3,60.1,55.9,95,78,52,29.85,29.76,12,2,12,0.00
2013-8-16,69.8,65.0,61.5,64.3,60.8,57.3,96,86,74,29.86,29.77,7,1,7,0.02
2013-8-17,67.6,64.4,61.5,67.1,63.6,60.6,99,97,88,29.87,29.81,9,3,9,0.52
2013-8-18,84.2,73.2,65.7,74.8,69.5,65.4,99,89,65,29.91,29.83,6,0,6,0.02
2013-8-19,77.9,71.6,68.0,73.7,70.5,67.7,99,96,83,29.88,29.80,6,1,6,0.39
2013-8-20,81.5,73.3,64.9,76.6,71.3,64.7,99,94,79,29.89,28.31,4,0,4,0.00
2013-8-21,84.0,76.0,71.6,80.8,74.0,70.2,99,94,79,29.93,29.84,10,1,10,0.78
2013-8-22,88.5,78.0,69.8,80.6,73.6,69.2,99,88,60,29.86,29.71,5,1,5,0.00
2013-8-23,89.1,79.0,69.4,76.0,72.1,68.5,99,81,55,29.77,29.67,10,1,10,0.00
2013-8-24,81.3,72.5,65.3,68.8,64.5,60.8,96,78,51,29.99,29.77,11,3,11,0.00
2013-8-25,80.1,69.9,61.0,66.0,62.0,57.5,98,78,50,30.08,29.98,10,2,10,0.00
2013-8-26,80.4,69.0,56.3,68.3,61.7,56.0,99,80,54,30.02,29.83,8,1,8,0.00
2013-8-27,88.3,74.0,69.4,74.1,67.9,65.7,94,83,48,29.92,29.83,4,0,4,0.00
2013-8-28,90.1,79.7,69.6,74.0,71.5,68.3,97,77,52,29.91,29.81,5,2,7,0.00
2013-8-29,90.7,82.7,75.7,74.2,72.6,70.4,89,73,53,29.83,29.77,9,2,9,0.00
2013-8-30,87.6,82.7,70.9,73.5,72.1,65.7,88,70,54,29.98,29.80,3,2,4,0.00
2013-8-31,87.8,76.7,67.3,76.1,71.2,66.1,97,84,59,29.93,29.83,7,2,7,0.00